Location: Aubervilles
(48.9167°N, 2.3833°E)
Time: 15:28:53
(UTC+00:00)

Cosmos 2322 - Pass Details

Date: 03 February 2023
Orbit: 841 x 853 km, 71.0° (Epoch: 30 March)

Event Time Altitude Azimuth Distance (km) Brightness Sun altitude
Rises 18:52:36 0° 182° (S) 3,407 6.9 -20.2°
Reaches altitude 10° 18:55:10 10° 175° (S) 2,476 6.1 -20.6°
Enters shadow 18:59:57 39° 120° (ESE) 1,262 4.2 -21.4°
